Location: Althorst
(53.6379°N, 10.7715°E)
Time: 19:40:52
(UTC+00:00)

Cosmos 2297 - Pass Details

Date: 10 December 2019
Orbit: 836 x 858 km, 71.0° (Epoch: 18 January)

Event Time Altitude Azimuth Distance (km) Brightness Sun altitude
Rises 16:22:20 0° 327° (NNW) 3,438 7.0 -11.6°
Reaches altitude 10° 16:24:52 10° 333° (NNW) 2,495 6.2 -12.0°
Maximum altitude 16:30:29 54° 50° (NE) 1,028 3.8 -12.8°
Drops below altitude 10° 16:36:03 10° 128° (SE) 2,467 5.8 -13.5°
Sets 16:38:32 0° 133° (SE) 3,395 6.6 -13.9°
